Flag for India Weather past 2 weeks in Chennai, Tamil Nadu, India

Now
90 °F

Scattered clouds.


Feels Like: 98 °F
Forecast: 80 / 88 °F
Wind: 3 mph from West

Location: Madras / Minambakkam

Current Time: Sep 24, 2014 at 10:38:09 AM

Latest Report: Sep 24, 2014 at 10:10 AM


Visibility: 4 mi

Pressure: 29.77 "Hg

Humidity: 59%

Dew point: 73 °F

Location of ChennaiLocation

Historic Weather in Chennai — Graph

°F

Chennai temperature yesterday

Maximum temperature yesterday: 91 °F (at 11:40 AM)
Minimum temperature yesterday: 81 °F (at 1:40 AM)
Average temperature yesterday: 84 °F

Past Weeks' High & Low Weather Summary

 TemperatureHumidityPressure
High99 °F (Sep 9, 4:10 PM)100% (Sep 15, 10:10 PM)29.83 "Hg (Sep 15, 10:10 PM)
Low73 °F (Sep 15, 10:10 PM)39% (Sep 9, 4:10 PM)29.56 "Hg (Sep 16, 3:40 PM)
Average84 °F74%29.71 "Hg
* Reported Sep 9 8:40 AM — Sep 24 9:10 AM, Chennai, Weather by CustomWeather, © 2014

Note: Actual official high and low records may vary slightly from our data, if they occured in-between our weather recording intervals... More about our weather records

Advertising

Chennai weather history for previous 24 hours

 ConditionsComfort  
Time TempWeatherWind HumidityBarometerVisibility
9:10 AM
Sep 24
86 °FScattered clouds.8 mph66%29.77 "Hg3 mi
8:40 AM86 °FScattered clouds.8 mph66%29.77 "Hg3 mi
8:10 AM86 °FScattered clouds.7 mph75%29.77 "Hg3 mi
7:40 AM84 °FScattered clouds.6 mph79%29.77 "Hg3 mi
7:10 AM82 °FScattered clouds.6 mph84%29.77 "Hg3 mi
6:40 AM81 °FScattered clouds.5 mph89%29.77 "Hg3 mi
5:40 AM81 °FPassing clouds.5 mph89%29.74 "Hg4 mi
5:10 AM82 °FPassing clouds.5 mph84%29.74 "Hg4 mi
4:40 AM82 °FPassing clouds.3 mph84%29.74 "Hg4 mi
4:10 AM82 °FPartly cloudy.3 mph84%29.74 "Hg4 mi
3:40 AM82 °FPartly cloudy.5 mph84%29.74 "Hg4 mi
3:10 AM82 °FPartly cloudy.7 mph84%29.74 "Hg4 mi
2:40 AM82 °FPartly cloudy.6 mph84%29.74 "Hg4 mi
2:10 AM82 °FPartly cloudy.6 mph84%29.74 "Hg4 mi
1:40 AM82 °FPartly cloudy.6 mph84%29.74 "Hg4 mi
1:10 AM82 °FPartly cloudy.5 mph84%29.74 "Hg4 mi
12:40 AM82 °FPartly cloudy.6 mph84%29.74 "Hg4 mi
12:10 AM84 °FPartly cloudy.6 mph84%29.74 "Hg4 mi
11:40 PM
Sep 23
84 °FPartly cloudy.6 mph84%29.77 "Hg4 mi
11:10 PM84 °FPassing clouds.5 mph79%29.77 "Hg4 mi
10:40 PM84 °FPassing clouds.7 mph79%29.77 "Hg4 mi
10:10 PM84 °FPassing clouds.8 mph79%29.77 "Hg4 mi
9:40 PM84 °FPassing clouds.6 mph79%29.77 "Hg4 mi
9:10 PM84 °FPassing clouds.2 mph79%29.77 "Hg4 mi
8:40 PM84 °FPassing clouds.2 mph79%29.74 "Hg4 mi
8:10 PM84 °FPassing clouds.3 mph79%29.74 "Hg4 mi
7:40 PM84 °FPassing clouds.5 mph79%29.74 "Hg4 mi
7:10 PM84 °FPassing clouds.7 mph79%29.71 "Hg4 mi
6:40 PM84 °FPassing clouds.7 mph79%29.71 "Hg4 mi
6:10 PM86 °FPassing clouds.6 mph75%29.68 "Hg4 mi
5:40 PM86 °FPassing clouds.7 mph75%29.68 "Hg4 mi
4:40 PM90 °FPassing clouds.8 mph71%29.65 "Hg4 mi
11:40 AM91 °FScattered clouds.8 mph63%29.74 "Hg4 mi
10:40 AM90 °FScattered clouds.12 mph67%29.77 "Hg4 mi
10:10 AM90 °FScattered clouds.10 mph67%29.77 "Hg4 mi
Weather by CustomWeather, © 2014

See weather overviewHow to use our weather pages